owner,sensor,date,latitude,longitude,vertical_datum,direction_of_sea_water_velocity,sea_water_speed,upward_sea_water_velocity,qcFlag 
ADCP,ioos:station:wmo:42372:1,2017-10-01T01:15:00Z,27.7800,-90.5180,34.0,40.0,3.0,-3.7,'1111122,1111122,1111122' 
ADCP,ioos:station:wmo:42372:1,2017-10-01T02:15:00Z,27.7800,-90.5180,34.2,76.0,4.2,-1.3,'1111122,1111122,1111122' 
ADCP,ioos:station:wmo:42372:1,2017-10-01T03:15:00Z,27.7800,-90.5180,34.1,56.0,2.9,-1.9,'1111122,1111122,1111122' 
ADCP,ioos:station:wmo:42372:1,2017-10-01T04:15:00Z,27.7800,-90.5180,34.0,46.0,3.2,-2.7,'1111122,1111122,1111122' 
ADCP,ioos:station:wmo:42372:1,2017-10-01T05:15:00Z,27.7800,-90.5180,34.2,38.0,4.2,-2.6,'1111122,1111122,1111122' 
ADCP,ioos:station:wmo:42372:1,2017-10-01T06:15:00Z,27.7800,-90.5180,34.2,22.0,2.4,-3.5,'1111122,1111122,1111122' 
ADCP,ioos:station:wmo:42372:1,2017-10-01T07:15:00Z,27.7800,-90.5180,34.1,63.0,3.4,-2.4,'1111122,1111122,1111122' 
ADCP,ioos:station:wmo:42372:1,2017-10-01T07:55:00Z,27.7800,-90.5180,34.1,86.0,3.1,-2.3,'1111122,1111122,1111122' 
ADCP,ioos:station:wmo:42372:1,2017-10-01T09:15:00Z,27.7800,-90.5180,34.2,62.0,3.0,-2.5,'1111122,1111122,1111122' 
ADCP,ioos:station:wmo:42372:1,2017-10-01T10:16:00Z,27.7800,-90.5180,34.1,18.0,5.9,-3.7,'1111122,1111122,1111122' 
ADCP,ioos:station:wmo:42372:1,2017-10-01T11:16:00Z,27.7800,-90.5180,34.1,347.0,2.3,-2.5,'1111122,1111122,1111122' 
ADCP,ioos:station:wmo:42372:1,2017-10-01T12:16:00Z,27.7800,-90.5180,33.9,70.0,2.7,-1.9,'1111122,1111122,1111122' 
ADCP,ioos:station:wmo:42372:1,2017-10-01T13:16:00Z,27.7800,-90.5180,34.1,112.0,0.5,-1.7,'1111122,1111122,1111122' 
ADCP,ioos:station:wmo:42372:1,2017-10-01T14:16:00Z,27.7800,-90.5180,34.0,259.0,4.7,-1.4,'1111122,1111122,1111122' 
ADCP,ioos:station:wmo:42372:1,2017-10-01T15:16:00Z,27.7800,-90.5180,34.1,302.0,1.3,-1.8,'1111122,1111122,1111122' 
ADCP,ioos:station:wmo:42372:1,2017-10-01T16:16:00Z,27.7800,-90.5180,34.1,218.0,3.4,-1.4,'1111122,1111122,1111122' 
ADCP,ioos:station:wmo:42372:1,2017-10-01T17:16:00Z,27.7800,-90.5180,33.9,172.0,1.5,-1.6,'1111122,1111122,1111122' 
ADCP,ioos:station:wmo:42372:1,2017-10-01T18:16:00Z,27.7800,-90.5180,34.2,63.0,1.3,-0.3,'1111122,1111122,1111122' 
ADCP,ioos:station:wmo:42372:1,2017-10-01T19:16:00Z,27.7800,-90.5180,33.9,198.0,4.2,-1.6,'1111122,1111122,1111122' 
ADCP,ioos:station:wmo:42372:1,2017-10-01T20:16:00Z,27.7800,-90.5180,33.9,212.0,4.5,-0.9,'1111122,1111122,1111122' 
ADCP,ioos:station:wmo:42372:1,2017-10-01T21:16:00Z,27.7800,-90.5180,34.1,212.0,3.1,-1.4,'1111122,1111122,1111122' 
ADCP,ioos:station:wmo:42372:1,2017-10-01T22:16:00Z,27.7800,-90.5180,33.8,78.0,4.5,-0.7,'1111122,1111122,1111122' 
ADCP,ioos:station:wmo:42372:1,2017-10-01T23:16:00Z,27.7800,-90.5180,34.2,344.0,8.2,-3.5,'1111122,1111122,1111122' 
ADCP,ioos:station:wmo:42372:1,2017-10-02T00:16:00Z,27.7800,-90.5180,34.1,301.0,9.1,-2.6,'1111122,1111122,1111122' 
ADCP,ioos:station:wmo:42372:1,2017-10-02T01:16:00Z,27.7800,-90.5180,33.9,9.0,1.3,-1.5,'1111122,1111122,1111122' 
ADCP,ioos:station:wmo:42372:1,2017-10-02T02:16:00Z,27.7800,-90.5180,34.0,327.0,3.0,-2.2,'1111122,1111122,1111122' 
ADCP,ioos:station:wmo:42372:1,2017-10-02T04:17:00Z,27.7800,-90.5180,33.9,351.0,3.2,-3.0,'1111122,1111122,1111122' 
ADCP,ioos:station:wmo:42372:1,2017-10-02T05:17:00Z,27.7800,-90.5180,34.0,37.0,3.6,-2.7,'1111122,1111122,1111122' 
ADCP,ioos:station:wmo:42372:1,2017-10-02T06:17:00Z,27.7800,-90.5180,33.8,150.0,2.8,-2.2,'1111122,1111122,1111122' 
ADCP,ioos:station:wmo:42372:1,2017-10-02T07:17:00Z,27.7800,-90.5180,33.9,286.0,2.5,-3.0,'1111122,1111122,1111122' 
ADCP,ioos:station:wmo:42372:1,2017-10-02T08:17:00Z,27.7800,-90.5180,34.0,56.0,2.7,-1.8,'1111122,1111122,1111122' 
ADCP,ioos:station:wmo:42372:1,2017-10-02T09:17:00Z,27.7800,-90.5180,34.2,172.0,0.7,-1.9,'1111122,1111122,1111122' 
ADCP,ioos:station:wmo:42372:1,2017-10-02T10:17:00Z,27.7800,-90.5180,34.1,221.0,1.8,-2.5,'1111122,1111122,1111122' 
ADCP,ioos:station:wmo:42372:1,2017-10-02T12:17:00Z,27.7800,-90.5180,34.2,195.0,2.8,-1.9,'1111122,1111122,1111122' 
ADCP,ioos:station:wmo:42372:1,2017-10-02T13:17:00Z,27.7800,-90.5180,33.9,99.0,3.7,-1.1,'1111122,1111122,1111122' 
ADCP,ioos:station:wmo:42372:1,2017-10-02T14:17:00Z,27.7800,-90.5180,34.2,121.0,3.3,-0.2,'1111122,1111122,1111122' 
ADCP,ioos:station:wmo:42372:1,2017-10-02T16:17:00Z,27.7800,-90.5180,33.9,34.0,2.7,-2.3,'1111122,1111122,1111122' 
ADCP,ioos:station:wmo:42372:1,2017-10-02T17:17:00Z,27.7800,-90.5180,34.2,164.0,4.8,-1.1,'1111122,1111122,1111122' 
ADCP,ioos:station:wmo:42372:1,2017-10-02T19:17:00Z,27.7800,-90.5180,34.1,20.0,1.5,-3.1,'1111122,1111122,1111122' 
ADCP,ioos:station:wmo:42372:1,2017-10-02T20:17:00Z,27.7800,-90.5180,34.1,150.0,1.6,-1.6,'1111122,1111122,1111122' 
ADCP,ioos:station:wmo:42372:1,2017-10-02T21:17:00Z,27.7800,-90.5180,34.0,131.0,2.3,-1.5,'1111122,1111122,1111122' 
ADCP,ioos:station:wmo:42372:1,2017-10-02T22:18:00Z,27.7800,-90.5180,34.0,168.0,5.6,-0.8,'1111122,1111122,1111122' 
ADCP,ioos:station:wmo:42372:1,2017-10-02T23:18:00Z,27.7800,-90.5180,34.0,240.0,5.2,-3.1,'1111122,1111122,1111122' 
ADCP,ioos:station:wmo:42372:1,2017-10-03T00:18:00Z,27.7800,-90.5180,34.0,209.0,10.0,-0.6,'1111122,1111122,1111122' 
ADCP,ioos:station:wmo:42372:1,2017-10-03T01:18:00Z,27.7800,-90.5180,34.1,221.0,10.0,-1.1,'1111122,1111122,1111122' 
ADCP,ioos:station:wmo:42372:1,2017-10-03T02:18:00Z,27.7800,-90.5180,34.1,215.0,8.3,-1.1,'1111122,1111122,1111122' 
ADCP,ioos:station:wmo:42372:1,2017-10-03T03:18:00Z,27.7800,-90.5180,33.9,185.0,3.5,0.0,'1111122,1111122,1114422' 
ADCP,ioos:station:wmo:42372:1,2017-10-03T04:18:00Z,27.7800,-90.5180,34.0,211.0,3.1,-0.5,'1111122,1111122,1111122' 
ADCP,ioos:station:wmo:42372:1,2017-10-03T05:18:00Z,27.7800,-90.5180,33.9,137.0,2.2,-0.9,'1111122,1111122,1111122' 
ADCP,ioos:station:wmo:42372:1,2017-10-03T06:18:00Z,27.7800,-90.5180,34.2,92.0,2.9,-1.2,'1111122,1111122,1111122' 
ADCP,ioos:station:wmo:42372:1,2017-10-03T07:18:00Z,27.7800,-90.5180,34.0,322.0,2.3,-2.3,'1111122,1111122,1111122' 
ADCP,ioos:station:wmo:42372:1,2017-10-03T08:18:00Z,27.7800,-90.5180,34.1,311.0,4.0,-2.7,'1111122,1111122,1111122' 
ADCP,ioos:station:wmo:42372:1,2017-10-03T16:19:00Z,27.7800,-90.5180,33.2,99.0,2.5,-0.8,'1111122,1111122,1111122' 
ADCP,ioos:station:wmo:42372:1,2017-10-03T17:19:00Z,27.7800,-90.5180,33.1,78.0,5.6,-0.8,'1111122,1111122,1111122' 
ADCP,ioos:station:wmo:42372:1,2017-10-03T18:19:00Z,27.7800,-90.5180,33.3,67.0,4.3,-1.4,'1111122,1111122,1111122' 
ADCP,ioos:station:wmo:42372:1,2017-10-03T19:19:00Z,27.7800,-90.5180,33.6,114.0,5.7,-0.7,'1111122,1111122,1111122' 
ADCP,ioos:station:wmo:42372:1,2017-10-03T20:19:00Z,27.7800,-90.5180,34.0,207.0,1.3,-2.3,'1111122,1111122,1111122' 
ADCP,ioos:station:wmo:42372:1,2017-10-03T21:19:00Z,27.7800,-90.5180,34.2,220.0,1.6,-1.4,'1111122,1111122,1111122' 
ADCP,ioos:station:wmo:42372:1,2017-10-03T22:19:00Z,27.7800,-90.5180,34.0,154.0,3.7,-0.8,'1111122,1111122,1111122' 
ADCP,ioos:station:wmo:42372:1,2017-10-03T23:19:00Z,27.7800,-90.5180,34.0,295.0,2.6,-1.8,'1111122,1111122,1111122' 
ADCP,ioos:station:wmo:42372:1,2017-10-04T00:19:00Z,27.7800,-90.5180,33.8,258.0,6.0,-2.3,'1111122,1111122,1111122' 
ADCP,ioos:station:wmo:42372:1,2017-10-04T01:19:00Z,27.7800,-90.5180,33.6,247.0,5.0,-0.4,'1111122,1111122,1111122' 
ADCP,ioos:station:wmo:42372:1,2017-10-04T02:19:00Z,27.7800,-90.5180,33.7,227.0,5.2,-1.0,'1111122,1111122,1111122' 
ADCP,ioos:station:wmo:42372:1,2017-10-04T03:19:00Z,27.7800,-90.5180,33.8,213.0,6.6,-1.0,'1111122,1111122,1111122' 
ADCP,ioos:station:wmo:42372:1,2017-10-04T04:19:00Z,27.7800,-90.5180,34.0,231.0,5.8,-1.6,'1111122,1111122,1111122' 
ADCP,ioos:station:wmo:42372:1,2017-10-04T05:19:00Z,27.7800,-90.5180,33.9,262.0,8.4,-2.2,'1111122,1111122,1111122' 
ADCP,ioos:station:wmo:42372:1,2017-10-04T06:19:00Z,27.7800,-90.5180,34.0,257.0,7.3,-1.7,'1111122,1111122,1111122' 
ADCP,ioos:station:wmo:42372:1,2017-10-04T07:19:00Z,27.7800,-90.5180,33.9,289.0,7.8,-1.8,'1111122,1111122,1111122' 
ADCP,ioos:station:wmo:42372:1,2017-10-04T08:19:00Z,27.7800,-90.5180,34.1,308.0,8.8,-3.2,'1111122,1111122,1111122' 
ADCP,ioos:station:wmo:42372:1,2017-10-04T09:20:00Z,27.7800,-90.5180,34.0,316.0,8.7,-3.3,'1111122,1111122,1111122' 
ADCP,ioos:station:wmo:42372:1,2017-10-04T12:20:00Z,27.7800,-90.5180,34.1,360.0,6.4,-3.1,'1111122,1111122,1111122' 
ADCP,ioos:station:wmo:42372:1,2017-10-04T13:20:00Z,27.7800,-90.5180,33.8,25.0,4.5,-0.9,'1111122,1111122,1111122' 
ADCP,ioos:station:wmo:42372:1,2017-10-04T15:20:00Z,27.7800,-90.5180,33.8,69.0,6.5,-0.7,'1111122,1111122,1111122' 
ADCP,ioos:station:wmo:42372:1,2017-10-04T16:20:00Z,27.7800,-90.5180,34.0,14.0,6.8,-2.5,'1111122,1111122,1111122' 
ADCP,ioos:station:wmo:42372:1,2017-10-04T17:20:00Z,27.7800,-90.5180,33.8,1.0,4.2,-2.6,'1111122,1111122,1111122' 
ADCP,ioos:station:wmo:42372:1,2017-10-04T18:20:00Z,27.7800,-90.5180,34.0,47.0,2.6,-2.9,'1111122,1111122,1111122' 
ADCP,ioos:station:wmo:42372:1,2017-10-04T19:20:00Z,27.7800,-90.5180,33.9,53.0,3.1,-2.0,'1111122,1111122,1111122' 
ADCP,ioos:station:wmo:42372:1,2017-10-04T20:20:00Z,27.7800,-90.5180,34.1,48.0,4.3,-1.3,'1111122,1111122,1111122' 
ADCP,ioos:station:wmo:42372:1,2017-10-04T21:20:00Z,27.7800,-90.5180,33.8,182.0,2.6,-0.9,'1111122,1111122,1111122' 
ADCP,ioos:station:wmo:42372:1,2017-10-04T22:20:00Z,27.7800,-90.5180,33.8,211.0,2.7,-0.2,'1111122,1111122,1111122' 
ADCP,ioos:station:wmo:42372:1,2017-10-04T23:20:00Z,27.7800,-90.5180,34.0,333.0,2.7,-3.2,'1111122,1111122,1111122' 
ADCP,ioos:station:wmo:42372:1,2017-10-05T00:20:00Z,27.7800,-90.5180,33.9,225.0,5.8,-1.6,'1111122,1111122,1111122' 
ADCP,ioos:station:wmo:42372:1,2017-10-05T01:20:00Z,27.7800,-90.5180,34.0,236.0,4.0,-0.5,'1111122,1111122,1111122' 
ADCP,ioos:station:wmo:42372:1,2017-10-05T02:20:00Z,27.7800,-90.5180,34.0,270.0,2.4,-1.7,'1111122,1111122,1111122' 
ADCP,ioos:station:wmo:42372:1,2017-10-05T03:21:00Z,27.7800,-90.5180,33.9,232.0,3.1,-0.6,'1111122,1111122,1111122' 
ADCP,ioos:station:wmo:42372:1,2017-10-05T04:21:00Z,27.7800,-90.5180,33.7,254.0,5.7,0.0,'1111122,1111122,1114422' 
ADCP,ioos:station:wmo:42372:1,2017-10-05T05:21:00Z,27.7800,-90.5180,34.0,200.0,7.1,-0.7,'1111122,1111122,1111122' 
ADCP,ioos:station:wmo:42372:1,2017-10-05T06:21:00Z,27.7800,-90.5180,34.0,291.0,7.2,-1.8,'1111122,1111122,1111122' 
ADCP,ioos:station:wmo:42372:1,2017-10-05T07:21:00Z,27.7800,-90.5180,34.1,262.0,6.5,-1.1,'1111122,1111122,1111122' 
ADCP,ioos:station:wmo:42372:1,2017-10-05T08:21:00Z,27.7800,-90.5180,34.0,280.0,4.6,-2.4,'1111122,1111122,1111122' 
ADCP,ioos:station:wmo:42372:1,2017-10-05T09:21:00Z,27.7800,-90.5180,33.9,292.0,9.5,-2.1,'1111122,1111122,1111122' 
ADCP,ioos:station:wmo:42372:1,2017-10-05T10:21:00Z,27.7800,-90.5180,33.9,299.0,8.7,-2.9,'1111122,1111122,1111122' 
ADCP,ioos:station:wmo:42372:1,2017-10-05T11:21:00Z,27.7800,-90.5180,34.1,300.0,13.5,-4.4,'1111122,1111122,1111122' 
ADCP,ioos:station:wmo:42372:1,2017-10-05T14:21:00Z,27.7800,-90.5180,33.8,173.0,1.7,-0.4,'1111122,1111122,1111122' 
ADCP,ioos:station:wmo:42372:1,2017-10-05T15:21:00Z,27.7800,-90.5180,28.0,343.0,161.3,5.9,'1111122,1111122,1111122' 
ADCP,ioos:station:wmo:42372:1,2017-10-05T16:21:00Z,27.7800,-90.5180,27.9,352.0,159.2,10.1,'1111122,1111122,1111122' 
ADCP,ioos:station:wmo:42372:1,2017-10-05T17:21:00Z,27.7800,-90.5180,27.9,358.0,170.9,-1.0,'1111122,1111122,1111122' 
ADCP,ioos:station:wmo:42372:1,2017-10-05T18:21:00Z,27.7800,-90.5180,27.9,349.0,159.1,-8.4,'1111122,1111122,1111122' 
ADCP,ioos:station:wmo:42372:1,2017-10-05T19:21:00Z,27.7800,-90.5180,27.4,332.0,19.2,-4.3,'1111122,1111122,1111122' 
ADCP,ioos:station:wmo:42372:1,2017-10-05T20:21:00Z,27.7800,-90.5180,27.2,348.0,45.0,-3.5,'1111122,1111122,1111122' 
ADCP,ioos:station:wmo:42372:1,2017-10-05T22:22:00Z,27.7800,-90.5180,27.4,338.0,25.0,-3.5,'1111122,1111122,1111122' 
ADCP,ioos:station:wmo:42372:1,2017-10-05T23:22:00Z,27.7800,-90.5180,27.1,329.0,9.8,-2.5,'1111122,1111122,1111122' 
ADCP,ioos:station:wmo:42372:1,2017-10-06T02:22:00Z,27.7800,-90.5180,27.0,354.0,55.0,1.2,'1111122,1111122,1111122' 
ADCP,ioos:station:wmo:42372:1,2017-10-06T04:22:00Z,27.7800,-90.5180,26.8,325.0,2.4,-0.6,'1111122,1111122,1111122' 
ADCP,ioos:station:wmo:42372:1,2017-10-06T05:22:00Z,27.7800,-90.5180,26.9,326.0,5.3,-1.6,'1111122,1111122,1111122' 
ADCP,ioos:station:wmo:42372:1,2017-10-06T06:22:00Z,27.7800,-90.5180,26.7,331.0,4.9,-1.3,'1111122,1111122,1111122' 
ADCP,ioos:station:wmo:42372:1,2017-10-06T07:22:00Z,27.7800,-90.5180,26.6,325.0,40.0,-11.5,'1111122,1111122,1111122' 
ADCP,ioos:station:wmo:42372:1,2017-10-06T08:22:00Z,27.7800,-90.5180,26.8,326.0,41.1,-11.0,'1111122,1111122,1111122' 
ADCP,ioos:station:wmo:42372:1,2017-10-06T09:22:00Z,27.7800,-90.5180,26.7,326.0,48.7,-13.3,'1111122,1111122,1111122' 
ADCP,ioos:station:wmo:42372:1,2017-10-06T10:22:00Z,27.7800,-90.5180,26.6,320.0,50.6,-14.5,'1111122,1111122,1111122' 
ADCP,ioos:station:wmo:42372:1,2017-10-06T11:22:00Z,27.7800,-90.5180,26.5,328.0,66.9,-18.1,'1111122,1111122,1111122' 
ADCP,ioos:station:wmo:42372:1,2017-10-06T12:22:00Z,27.7800,-90.5180,26.7,324.0,16.1,-4.9,'1111122,1111122,1111122' 
ADCP,ioos:station:wmo:42372:1,2017-10-06T13:22:00Z,27.7800,-90.5180,26.6,320.0,33.4,-10.2,'1111122,1111122,1111122' 
ADCP,ioos:station:wmo:42372:1,2017-10-06T14:22:00Z,27.7800,-90.5180,26.7,325.0,23.4,-7.2,'1111122,1111122,1111122' 
ADCP,ioos:station:wmo:42372:1,2017-10-06T15:22:00Z,27.7800,-90.5180,26.5,322.0,69.1,-20.5,'1111122,1111122,1111122' 
ADCP,ioos:station:wmo:42372:1,2017-10-06T16:23:00Z,27.7800,-90.5180,26.5,323.0,97.3,-30.7,'1111122,1111122,1111122' 
ADCP,ioos:station:wmo:42372:1,2017-10-06T17:23:00Z,27.7800,-90.5180,26.6,325.0,7.8,-2.4,'1111122,1111122,1111122' 
ADCP,ioos:station:wmo:42372:1,2017-10-06T18:23:00Z,27.7800,-90.5180,26.7,330.0,5.8,-1.5,'1111122,1111122,1111122' 
ADCP,ioos:station:wmo:42372:1,2017-10-06T20:23:00Z,27.7800,-90.5180,26.7,324.0,22.3,-6.6,'1111122,1111122,1111122' 
ADCP,ioos:station:wmo:42372:1,2017-10-06T21:23:00Z,27.7800,-90.5180,26.8,323.0,5.1,-1.5,'1111122,1111122,1111122' 
ADCP,ioos:station:wmo:42372:1,2017-10-06T22:23:00Z,27.7800,-90.5180,26.7,323.0,20.3,-6.6,'1111122,1111122,1111122' 
ADCP,ioos:station:wmo:42372:1,2017-10-07T00:23:00Z,27.7800,-90.5180,26.7,326.0,16.7,-5.6,'1111122,1111122,1111122' 
ADCP,ioos:station:wmo:42372:1,2017-10-07T01:23:00Z,27.7800,-90.5180,26.8,325.0,27.9,-9.0,'1111122,1111122,1111122' 
ADCP,ioos:station:wmo:42372:1,2017-10-07T02:23:00Z,27.7800,-90.5180,26.6,322.0,13.5,-4.1,'1111122,1111122,1111122' 
ADCP,ioos:station:wmo:42372:1,2017-10-07T03:23:00Z,27.7800,-90.5180,26.8,324.0,18.7,-6.4,'1111122,1111122,1111122' 
ADCP,ioos:station:wmo:42372:1,2017-10-07T04:23:00Z,27.7800,-90.5180,26.8,324.0,13.0,-4.4,'1111122,1111122,1111122' 
ADCP,ioos:station:wmo:42372:1,2017-10-07T05:23:00Z,27.7800,-90.5180,26.8,326.0,11.7,-3.8,'1111122,1111122,1111122' 
ADCP,ioos:station:wmo:42372:1,2017-10-07T06:23:00Z,27.7800,-90.5180,26.5,329.0,10.4,-2.8,'1111122,1111122,1111122' 
ADCP,ioos:station:wmo:42372:1,2017-10-07T07:23:00Z,27.7800,-90.5180,26.1,315.0,12.0,-3.4,'1111122,1111122,1111122' 
ADCP,ioos:station:wmo:42372:1,2017-10-07T08:23:00Z,27.7800,-90.5180,25.8,320.0,23.5,-6.1,'1111122,1111122,1111122' 
ADCP,ioos:station:wmo:42372:1,2017-10-07T09:23:00Z,27.7800,-90.5180,26.0,314.0,30.2,-8.4,'1111122,1111122,1111122' 
ADCP,ioos:station:wmo:42372:1,2017-10-07T10:24:00Z,27.7800,-90.5180,26.3,312.0,40.6,-9.0,'1111122,1111122,1111122' 
ADCP,ioos:station:wmo:42372:1,2017-10-07T11:24:00Z,27.7800,-90.5180,26.6,321.0,94.0,-25.4,'1111122,1111122,1111122' 
ADCP,ioos:station:wmo:42372:1,2017-10-07T12:24:00Z,27.7800,-90.5180,26.5,332.0,80.7,-16.3,'1111122,1111122,1111122' 
ADCP,ioos:station:wmo:42372:1,2017-10-07T13:24:00Z,27.7800,-90.5180,26.8,336.0,93.7,-17.6,'1111122,1111122,1111122' 
ADCP,ioos:station:wmo:42372:1,2017-10-07T14:24:00Z,27.7800,-90.5180,26.6,327.0,50.0,-17.3,'1111122,1111122,1111122' 
ADCP,ioos:station:wmo:42372:1,2017-10-07T15:24:00Z,27.7800,-90.5180,26.8,332.0,7.4,-2.4,'1111122,1111122,1111122' 
ADCP,ioos:station:wmo:42372:1,2017-10-07T16:24:00Z,27.7800,-90.5180,26.6,326.0,75.2,-24.4,'1111122,1111122,1111122' 
ADCP,ioos:station:wmo:42372:1,2017-10-07T17:24:00Z,27.7800,-90.5180,26.8,326.0,57.7,-19.2,'1111122,1111122,1111122' 
ADCP,ioos:station:wmo:42372:1,2017-10-07T18:24:00Z,27.7800,-90.5180,26.6,326.0,93.2,-31.6,'1111122,1111122,1111122' 
ADCP,ioos:station:wmo:42372:1,2017-10-07T19:24:00Z,27.7800,-90.5180,26.6,321.0,120.0,-34.9,'1111122,1111122,1111122' 
ADCP,ioos:station:wmo:42372:1,2017-10-07T20:24:00Z,27.7800,-90.5180,26.7,311.0,125.2,-20.6,'1111122,1111122,1111122' 
ADCP,ioos:station:wmo:42372:1,2017-10-07T21:24:00Z,27.7800,-90.5180,26.6,319.0,100.2,-28.0,'1111122,1111122,1111122' 
ADCP,ioos:station:wmo:42372:1,2017-10-07T22:24:00Z,27.7800,-90.5180,26.4,303.0,96.2,-8.9,'1111122,1111122,1111122' 
ADCP,ioos:station:wmo:42372:1,2017-10-07T23:24:00Z,27.7800,-90.5180,26.5,293.0,118.7,-3.5,'1111122,1111122,1111122' 
ADCP,ioos:station:wmo:42372:1,2017-10-08T00:24:00Z,27.7800,-90.5180,26.3,292.0,125.8,3.9,'1111122,1111122,1111122' 
ADCP,ioos:station:wmo:42372:1,2017-10-08T01:24:00Z,27.7800,-90.5180,26.5,291.0,116.4,-0.4,'1111122,1111122,1111122' 
ADCP,ioos:station:wmo:42372:1,2017-10-08T02:24:00Z,27.7800,-90.5180,26.5,289.0,116.0,-0.9,'1111122,1111122,1111122' 
ADCP,ioos:station:wmo:42372:1,2017-10-08T03:24:00Z,27.7800,-90.5180,26.4,295.0,109.4,-6.3,'1111122,1111122,1111122' 
ADCP,ioos:station:wmo:42372:1,2017-10-08T04:24:00Z,27.7800,-90.5180,26.5,290.0,104.7,3.1,'1111122,1111122,1111122' 
ADCP,ioos:station:wmo:42372:1,2017-10-08T05:25:00Z,27.7800,-90.5180,26.3,293.0,92.6,-1.8,'1111122,1111122,1111122' 
ADCP,ioos:station:wmo:42372:1,2017-10-08T06:25:00Z,27.7800,-90.5180,26.2,299.0,80.2,-7.1,'1111122,1111122,1111122' 
ADCP,ioos:station:wmo:42372:1,2017-10-08T07:25:00Z,27.7800,-90.5180,26.4,302.0,71.6,-10.1,'1111122,1111122,1111122' 
ADCP,ioos:station:wmo:42372:1,2017-10-08T08:25:00Z,27.7800,-90.5180,26.6,313.0,71.8,-17.5,'1111122,1111122,1111122' 
ADCP,ioos:station:wmo:42372:1,2017-10-08T09:25:00Z,27.7800,-90.5180,26.4,307.0,49.0,-6.3,'1111122,1111122,1111122' 
ADCP,ioos:station:wmo:42372:1,2017-10-08T10:25:00Z,27.7800,-90.5180,26.6,296.0,117.0,-6.0,'1111122,1111122,1111122' 
ADCP,ioos:station:wmo:42372:1,2017-10-08T11:25:00Z,27.7800,-90.5180,26.4,291.0,115.5,-1.3,'1111122,1111122,1111122' 
ADCP,ioos:station:wmo:42372:1,2017-10-08T12:15:00Z,27.7800,-90.5180,26.3,288.0,103.2,3.4,'1111122,1111122,1111122' 
ADCP,ioos:station:wmo:42372:1,2017-10-08T13:15:00Z,27.7800,-90.5180,26.5,289.0,160.9,3.0,'1111122,1111122,1111122' 
ADCP,ioos:station:wmo:42372:1,2017-10-08T14:15:00Z,27.7800,-90.5180,26.5,302.0,87.2,-10.6,'1111122,1111122,1111122' 
ADCP,ioos:station:wmo:42372:1,2017-10-08T15:15:00Z,27.7800,-90.5180,26.3,329.0,73.8,-25.6,'1111122,1111122,1111122' 
ADCP,ioos:station:wmo:42372:1,2017-10-08T16:15:00Z,27.7800,-90.5180,26.4,331.0,58.1,-20.9,'1111122,1111122,1111122' 
ADCP,ioos:station:wmo:42372:1,2017-10-08T17:15:00Z,27.7800,-90.5180,26.3,331.0,74.5,-26.9,'1111122,1111122,1111122' 
ADCP,ioos:station:wmo:42372:1,2017-10-08T18:15:00Z,27.7800,-90.5180,26.2,333.0,95.9,-34.2,'1111122,1111122,1111122' 
ADCP,ioos:station:wmo:42372:1,2017-10-08T19:20:00Z,27.7800,-90.5180,26.5,330.0,81.2,-29.0,'1111122,1111122,1111122' 
ADCP,ioos:station:wmo:42372:1,2017-10-08T20:20:00Z,27.7800,-90.5180,26.5,329.0,90.4,-31.0,'1111122,1111122,1111122' 
ADCP,ioos:station:wmo:42372:1,2017-10-08T21:20:00Z,27.7800,-90.5180,26.4,328.0,60.4,-20.6,'1111122,1111122,1111122' 
ADCP,ioos:station:wmo:42372:1,2017-10-08T22:21:00Z,27.7800,-90.5180,26.6,321.0,43.7,-12.0,'1111122,1111122,1111122' 
ADCP,ioos:station:wmo:42372:1,2017-10-08T23:21:00Z,27.7800,-90.5180,26.6,316.0,73.0,-17.0,'1111122,1111122,1111122' 
ADCP,ioos:station:wmo:42372:1,2017-10-09T00:21:00Z,27.7800,-90.5180,26.4,300.0,112.8,-8.8,'1111122,1111122,1111122' 
ADCP,ioos:station:wmo:42372:1,2017-10-09T01:21:00Z,27.7800,-90.5180,26.4,306.0,131.0,-15.2,'1111122,1111122,1111122' 
ADCP,ioos:station:wmo:42372:1,2017-10-09T02:21:00Z,27.7800,-90.5180,26.4,299.0,146.7,-7.6,'1111122,1111122,1111122' 
ADCP,ioos:station:wmo:42372:1,2017-10-09T03:21:00Z,27.7800,-90.5180,26.3,304.0,113.6,-13.6,'1111122,1111122,1111122' 
ADCP,ioos:station:wmo:42372:1,2017-10-09T04:21:00Z,27.7800,-90.5180,26.2,310.0,122.6,-16.1,'1111122,1111122,1111122' 
ADCP,ioos:station:wmo:42372:1,2017-10-09T05:21:00Z,27.7800,-90.5180,26.5,303.0,119.3,-6.7,'1111122,1111122,1111122' 
ADCP,ioos:station:wmo:42372:1,2017-10-09T06:21:00Z,27.7800,-90.5180,26.4,319.0,105.8,-28.9,'1111122,1111122,1111122' 
ADCP,ioos:station:wmo:42372:1,2017-10-09T07:22:00Z,27.7800,-90.5180,26.4,318.0,124.2,-29.1,'1111122,1111122,1111122' 
ADCP,ioos:station:wmo:42372:1,2017-10-09T08:22:00Z,27.7800,-90.5180,26.3,312.0,78.9,-15.1,'1111122,1111122,1111122' 
ADCP,ioos:station:wmo:42372:1,2017-10-09T09:12:00Z,27.7800,-90.5180,26.5,296.0,119.6,0.5,'1111122,1111122,1111122' 
ADCP,ioos:station:wmo:42372:1,2017-10-09T10:22:00Z,27.7800,-90.5180,25.9,317.0,22.1,-5.8,'1111122,1111122,1111122' 
ADCP,ioos:station:wmo:42372:1,2017-10-09T11:22:00Z,27.7800,-90.5180,26.3,327.0,60.1,8.3,'1111122,1111122,1111122' 
ADCP,ioos:station:wmo:42372:1,2017-10-09T12:12:00Z,27.7800,-90.5180,26.3,302.0,71.7,0.0,'1111122,1111122,1114422' 
ADCP,ioos:station:wmo:42372:1,2017-10-09T13:22:00Z,27.7800,-90.5180,26.4,331.0,40.8,-12.1,'1111122,1111122,1111122' 
ADCP,ioos:station:wmo:42372:1,2017-10-09T15:22:00Z,27.7800,-90.5180,26.5,329.0,38.4,-11.6,'1111122,1111122,1111122' 
ADCP,ioos:station:wmo:42372:1,2017-10-09T16:22:00Z,27.7800,-90.5180,26.3,330.0,50.1,-16.3,'1111122,1111122,1111122' 
ADCP,ioos:station:wmo:42372:1,2017-10-09T18:22:00Z,27.7800,-90.5180,26.4,324.0,40.2,-11.0,'1111122,1111122,1111122' 
ADCP,ioos:station:wmo:42372:1,2017-10-09T19:22:00Z,27.7800,-90.5180,26.4,323.0,34.3,-9.1,'1111122,1111122,1111122' 
ADCP,ioos:station:wmo:42372:1,2017-10-09T20:22:00Z,27.7800,-90.5180,26.3,322.0,61.4,-14.8,'1111122,1111122,1111122' 
ADCP,ioos:station:wmo:42372:1,2017-10-09T21:22:00Z,27.7800,-90.5180,26.4,320.0,91.4,-18.4,'1111122,1111122,1111122' 
ADCP,ioos:station:wmo:42372:1,2017-10-09T22:22:00Z,27.7800,-90.5180,26.3,324.0,68.3,-18.7,'1111122,1111122,1111122' 
ADCP,ioos:station:wmo:42372:1,2017-10-09T23:22:00Z,27.7800,-90.5180,26.3,320.0,75.1,-18.6,'1111122,1111122,1111122' 
ADCP,ioos:station:wmo:42372:1,2017-10-10T01:22:00Z,27.7800,-90.5180,26.3,293.0,174.3,1.8,'1111122,1111122,1111122' 
ADCP,ioos:station:wmo:42372:1,2017-10-10T02:23:00Z,27.7800,-90.5180,26.2,290.0,182.9,4.9,'1111122,1111122,1111122' 
ADCP,ioos:station:wmo:42372:1,2017-10-10T03:23:00Z,27.7800,-90.5180,26.2,291.0,180.8,4.9,'1111122,1111122,1111122' 
ADCP,ioos:station:wmo:42372:1,2017-10-10T04:23:00Z,27.7800,-90.5180,26.3,293.0,170.6,3.3,'1111122,1111122,1111122' 
ADCP,ioos:station:wmo:42372:1,2017-10-10T05:23:00Z,27.7800,-90.5180,26.4,294.0,170.5,1.9,'1111122,1111122,1111122' 
ADCP,ioos:station:wmo:42372:1,2017-10-10T06:23:00Z,27.7800,-90.5180,26.2,294.0,171.1,0.9,'1111122,1111122,1111122' 
ADCP,ioos:station:wmo:42372:1,2017-10-10T07:23:00Z,27.7800,-90.5180,26.2,295.0,153.4,-1.5,'1111122,1111122,1111122' 
ADCP,ioos:station:wmo:42372:1,2017-10-10T08:23:00Z,27.7800,-90.5180,26.3,299.0,148.2,-4.3,'1111122,1111122,1111122' 
ADCP,ioos:station:wmo:42372:1,2017-10-10T09:23:00Z,27.7800,-90.5180,26.3,302.0,115.8,-7.0,'1111122,1111122,1111122' 
ADCP,ioos:station:wmo:42372:1,2017-10-10T10:23:00Z,27.7800,-90.5180,26.3,306.0,112.8,-11.2,'1111122,1111122,1111122' 
ADCP,ioos:station:wmo:42372:1,2017-10-10T11:23:00Z,27.7800,-90.5180,26.2,307.0,115.1,-14.0,'1111122,1111122,1111122' 
ADCP,ioos:station:wmo:42372:1,2017-10-10T13:23:00Z,27.7800,-90.5180,26.4,325.0,80.1,-23.7,'1111122,1111122,1111122' 
ADCP,ioos:station:wmo:42372:1,2017-10-10T14:23:00Z,27.7800,-90.5180,26.2,337.0,87.4,-33.5,'1111122,1111122,1111122' 
ADCP,ioos:station:wmo:42372:1,2017-10-10T15:23:00Z,27.7800,-90.5180,26.2,340.0,80.2,-31.2,'1111122,1111122,1111122' 
ADCP,ioos:station:wmo:42372:1,2017-10-10T16:23:00Z,27.7800,-90.5180,26.2,343.0,53.9,-21.2,'1111122,1111122,1111122' 